Погода в Нефтчале

Погода в Нефтчале : погода сейчас, прогноз погоды и архив. Всё, что Вы хотите узнать о погоде в Нефтчале!

Поиск расширенной информации на нашем сайте:

Другие новости

Новости СМИ2

Главная страница сайта

Новости сайта

03.07.2017

Напоминаем, что на нашем специализированном сайте Метеоцентр.Азия вы можете получить высокодетализированные автоматические прогнозы погоды по пунктам России, СНГ и мира в авиационном формате (включающие направление и скорость ветра, видимость, явления погоды, количество и форму облачности, нижнюю и верхнюю границу облачности).


Погода в Нефтчале - сегодня

Время (UTC), дата Ветер
(°,м/с) 
Видим.   Явления Облачность Т
(°С)
Тd
(°С)
f(%) Тe
(°С)
Pmin
(гПа)
dP
(гПа)
Po
(мм)
O2
(г/м3)
Тmin Tmax R s Состояние
почвы
00 18.11.18 270 (З) 10 км    ясно 
+9 +7.1 88 +9  1024.1  770  299           
03 18.11.18 270 (З) 10 км    10/0 средняя 
[Ac As]
+9 +6.4 84 +8  1024.1  770  299           
09 18.11.18 050 (СВ) 20000 м    8/8 600 м 
[Cu med, cong]
+13.9 +10.1 78 +15  1023.2  -1.5  770  293           
12 18.11.18 050 (СВ) 20000 м    6/6 600 м 
[Sc]
+14 +10.1 77 +16  1022.6  -0.6  769  293           
15 18.11.18 тихо ()   10 км    9/9 600 м 
[Sc]
+12 +10.2 89 +13  1023  0.4  769  295           
21 18.11.18 тихо ()   10 км    6/6 600 м 
[Sc]
+11.4 +9.3 87 +11  1023.7  770  296           
00 19.11.18 050 (СВ) 10 км    ясно 
+11 +9 87 +11  1023.7  770  297           
03 19.11.18 тихо ()   10 км    ясно 
+10.7 +8.7 87 +11  1024.5  0.8  771  297           
09 19.11.18 050 (СВ) 20000 м    9/9 600 м 
[Sc]
+13.8 +9.3 74 +13  1025.7  -0.4  771  294           
12 19.11.18 050 (СВ) 20000 м    9/9 600 м 
[Sc]
+13.3 +9 75 +14  1025.6  -0.1  771  295           
15 19.11.18 тихо ()   10 км    6/6 600 м 
[Sc]
+12.1 +8.9 81 +12  1025.7  0.1  771  296           
21 19.11.18 тихо ()   10 км    8/8 600 м 
[Sc]
+12.1 +10.2 88 +13  1024.4  -1  770  295           
00 20.11.18 тихо ()   10 км    8/8 600 м 
[Sc]
+11.2 +10 92 +12  1023.3  -1.1  770  296           
03 20.11.18 320 (СЗ) 10 км    10/10 600 м 
[Sc]
+9.4 +8.2 92 +9  1023.2  -0.1  770  298           
06 20.11.18 270 (З) 20000 м    10/10 600 м 
[Sc]
+10.5 +8.5 87 +10  1023.1  -0.1  770  297  +9.4         
09 20.11.18 270 (З) 20000 м    10/0 средняя 
[Ac As]
+12.8 +8.8 77 +12  1020.8  -2.3  768  294           
12 20.11.18 320 (СЗ) 20000 м    6/6 600 м 
[Cu med, cong]
+15.8 +9 64 +17  1018.5  -2.3  766  290           
15 20.11.18 270 (З) 10 км    ясно 
+10.4 +8.1 86 +12  1018.3  -0.2  766  296           
18 20.11.18 230 (ЮЗ) 10 км    ясно 
+9.5 +8.4 93 +11  1017.3  -1  765  297    +16.5       
21 20.11.18 240 (ЮЗ) 10 км    10/0 средняя 
[Ac As]
+9.1 +7.7 91 +9  1015.4  -1.9  764  297           
00 21.11.18 270 (З) 10 км    ясно 
+6.8 +5.6 92 +7  1014.2  -1.2  763  299           
03 21.11.18 360 (С) 10 км    9/0 средняя 
[Ac und]
+7.2 +6.4 95 +6  1015.2  764  299           
06 21.11.18 050 (СВ) 20000 м    6/6 600 м 
[Cu med, cong]
+13.3 +8.6 73 +13  1017  1.8  765  292  +6.4         
09 21.11.18 050 (СВ) 20000 м    8/8 600 м 
[Cu med, cong]
+14.2 +8.7 69 +14  1016.3  -0.7  764  291           
12 21.11.18 050 (СВ) 20000 м    8/8 600 м 
[Sc]
+13.6 +9.4 76 +14  1016.3  764  292           
Время (UTC), дата Ветер
(°,м/с) 
Видим.   Явления Облачность Т
(°С)
Тd
(°С)
f(%) Тe
(°С)
Pmin
(гПа)
dP
(гПа)
Po
(мм)
O2
(г/м3)
Тmin Tmax R s Состояние
почвы

Для получения пояснительной информации подведите курсор к названию столбца.

ПОГОДА в Нефтчале - архив

Всё, что Вы хотите узнать о погоде в Нефтчале - удобно и подробно!

Выберите нужную дату (начиная с 1 января 2015* года) и нажмите кнопку "Найти".
Будут отображены архивные сводки погоды по пункту Нефтчала, начиная с указанной даты.


Отображать данные в формате CSV (для использования в таблицах Excel)


Внимание! Наш архив погоды предназначен исключительно для личного некоммерческого использования в познавательных целях. Если Вам необходимы официальные справки о состоянии погоды (для производственных, юридических, коммерческих и т.п. целей), обращайтесь в органы Росгидромета.

*Примечание: данная дата относится к архиву по метеостанциям СССР (Россия, СНГ, Балтия).
Архив по метеостанциям Зарубежной Европы и Азии (кроме Китая) хранится 10 дней, по другим регионам земного шара (Китай, Африка, Америка, Австралия, Океания) - 1 день.

Нефтчала - район местоположения метеостанции


Название, широта, долгота, высота метеостанции:
Нефтчала 39.4°ш. 49.2°д. -24 м над ур. моря [Азербайджан]

Дополнительная информация

В oтличие oт бoльшинства пoгoдных сайтoв мы публикуем пoдрoбную метеoинфoрмацию в детальнoм прoфессиoнальнoм фoрмате.

Характеристики температуры и влажнoсти вoздуха измеряются на высoте 2 м в тени вдали oт зданий и деревьев.
Скoрoсть ветра измеряется на высoте 10 м (на урoвне рoста челoвека скoрoсть ветра ниже в 1.5-2 раза). Если метеoстанция нахoдится в гoрoде или в лесу, тo скoрoсть ветра занижена на 2-4 м/с пo сравнению с oткрытым местoм. Скoрoсть ветра над акватoриями крупных рек и oзёр, а также на вершинах хoлмoв на 2-5 м/с выше, чем в oбычных услoвиях.
Атмoсфернoе давление в разных тoчках местнoсти мoжет значительнo oтличаться oт давления на метеoстанции, в зависимoсти oт услoвий рельефа (при пoдъёме на 10 м давление пoнижается примернo на 1 мм рт.ст.).